This is the latest recevied weather packets stored in our database for station/object DM8MH-13. If no packets are shown the sender has not sent any weather packets the latest 1 day(s).
| Time | Temp. | Humidity | Pressure | Rain* | Wind** | Luminosity | Snow |
|---|---|---|---|---|---|---|---|
| 1777966272 | 15° C | 90% | 1008.9 hPa | 0 mm | 0 m/s | 99 W/m² | - |
| 1777965672 | 15° C | 91% | 1008.8 hPa | 0 mm | 0 m/s | 91 W/m² | - |
| 1777965072 | 15° C | 91% | 1008.8 hPa | 0 mm | 0 m/s | 105 W/m² | - |
| 1777964472 | 15° C | 92% | 1009 hPa | 0 mm | 0 m/s | 109 W/m² | - |
| 1777963872 | 14.44° C | 92% | 1009 hPa | 0 mm | 0 m/s | 130 W/m² | - |
| 1777963272 | 14.44° C | 92% | 1009 hPa | 0 mm | 0 m/s | 134 W/m² | - |
| 1777962671 | 14.44° C | 92% | 1009 hPa | 0 mm | 0 m/s | 99 W/m² | - |
| 1777962073 | 14.44° C | 92% | 1009.2 hPa | 0 mm | 0 m/s | 75 W/m² | - |
| 1777961472 | 13.89° C | 92% | 1009.4 hPa | 0 mm | 0 m/s | 77 W/m² | - |
| 1777960873 | 13.89° C | 92% | 1009.5 hPa | 0 mm | 0 m/s | 82 W/m² | - |
| 1777960272 | 13.89° C | 92% | 1009.5 hPa | 0 mm | 0 m/s | 68 W/m² | - |
| 1777959673 | 13.89° C | 92% | 1009.5 hPa | 0 mm | 0 m/s | 62 W/m² | - |
| 1777959073 | 13.89° C | 92% | 1009.6 hPa | 0.25 mm | 0 m/s | 50 W/m² | - |
| 1777958472 | 13.89° C | 92% | 1009.5 hPa | 0.51 mm | 0 m/s | 37 W/m² | - |
| 1777957873 | 13.33° C | 92% | 1009.4 hPa | 0.51 mm | 0 m/s | 31 W/m² | - |
| 1777957272 | 13.33° C | 92% | 1009.5 hPa | 0.51 mm | 0 m/s | 27 W/m² | - |
| 1777956672 | 13.33° C | 92% | 1009.5 hPa | 0.51 mm | 0 m/s | 28 W/m² | - |
| 1777956072 | 13.33° C | 91% | 1009.5 hPa | 0.51 mm | 0 m/s | 20 W/m² | - |
| 1777955473 | 13.33° C | 91% | 1009.8 hPa | 0.25 mm | 0 m/s | 16 W/m² | - |
| 1777954873 | 13.33° C | 91% | 1010 hPa | 0 mm | 0 m/s | 3 W/m² | - |
| 1777954272 | 13.33° C | 91% | 1009.9 hPa | 0 mm | 0 m/s | 0 W/m² | - |
| 1777953672 | 13.33° C | 91% | 1010 hPa | 0 mm | 0 m/s | 0 W/m² | - |
| 1777953072 | 13.33° C | 91% | 1010 hPa | 0 mm | 0 m/s | 0 W/m² | - |
| 1777952473 | 13.33° C | 91% | 1009.9 hPa | 0 mm | 0 m/s | 0 W/m² | - |
| 1777951873 | 13.33° C | 91% | 1009.8 hPa | 0 mm | 0 m/s | 0 W/m² | - |
* Rain latest hour (hover to see other rain measurements)
** Current wind speed in m/s (hover to see current wind gust speed)